CZ-6A DEB, 60650

Orbit data source: Space-Track

CZ-6A DEB, 60650 is space debris in LEO originally from a launch on Tue, 06 Aug 2024 UTC launched from the Taiyaun Space Center, China (TSC). Debris objects in space refer to the collection of defunct objects orbiting the Earth. Examples of debris include non-operational satellites, rocket bodies, and fragments generated from explosions, collisions, or faulty payload assembly.

Loading next visibility...
Identifier
60650, 2024-140BB
Orbit
LEO
Country
Flag of CNCN / PRC
Related business
Manufacturer
SAST
Mission
Spacecraft
Bus & Motor
Unknown
Mass
Unknown
Launch date (UTC)
2024-08-06 (2 years ago)
Launch vehicle
Unknown
Launch site
Taiyaun Space Center, China (TSC)
Object type
Payload
Rocket body
Debris
Shape & HBR
Unknown shape, 0.9 m
Radar Cross Section
Large (>1 m²)

Expand to show TLE details & history
Last TLE update: 15 hours ago

TLE from 15 hours ago
0 CZ-6A DEB
1 60650U 24140BB  26171.34210978  .00000448  00000-0  88804-4 0  9997
2 60650  88.9626 266.2765 0125241 250.8377 107.9242 14.55668614 98984
Epoch: 2026-06-20T08:12Z
TLE epoch observation values (Epoch: 2026-06-20T08:12:38.284Z)
Latitude
-0.00011°
Longitude
-125.44113°
Altitude
738.614 km
Speed
7.471 km/s
True Right ascension
17h 45m 06s
True Declination
0° 00' 00"
Sunlit
Object was in full shadow at epoch
Visualization orbit readout
Latitude
Unknown
Longitude
Unknown
Altitude
Unknown
Speed
Unknown
Apparent Right ascension
Unknown
Apparent Declination
Unknown
Sunlit
N/A
Visualization observer readout
Local Sidereal Time
10:19:51
Azimuth
Unknown
Elevation
Unknown
Doppler factor
Unknown
Orbital elements
Apogee altitude
792.793 km
Perigee altitude
615.395 km
Semi-major axis
7,082.231 km
Eccentricity
0.01252
Inclination
88.9626°
RAAN
266.2765°
Arg. of periapsis
250.8377°
True anomaly
109.28302°
Mean anomaly
107.9242°
Eccentric anomaly
108.60428°
Mean motion
3.64156 °/min
Orbital period
98.86 mins
BSTAR
0.000088804
Loading maneuver chart data...
Computing Atmospheric mass density...
Loading historical data...
Loading historical data...
Loading historical data...
Loading historical data...
Loading historical data...
Loading historical data...
Loading historical data...

Documentation

Showing up to 5 results
|